{"data":{"norad_id":49264,"intl_designator":"2021-088E","name":"CUPID","alt_names":[],"object_type":"PAYLOAD","status":"ACTIVE","operator":null,"country":"US","launch_date":"2021-09-27","launch_site_code":"AFWTR","launch_vehicle":null,"mission":null,"orbit_class":"UNKNOWN","rcs_meters":null,"size_class":null,"mass_kg":null,"dimensions":null,"purposes":[],"wikipedia_slug":null,"has_3d_model":false,"image_url":null,"decayed_at":null,"tle_current":{"epoch":"2026-09-20T21:22:19.600032Z","epoch_age_seconds":70393,"freshness":"FRESH","line1":"1 49264U 21088E   26263.89050463  .00004533  00000+0  17263-3 0  9994","line2":"2 49264  97.3770 323.9937 0013325  87.4791 272.7973 15.27157845274786","mean_motion":15.27157845,"eccentricity":0.0013325,"inclination_deg":97.377,"raan_deg":323.9937,"arg_perigee_deg":87.4791,"mean_anomaly_deg":272.7973,"bstar":0.00017263,"rev_number":27478,"period_min":94.292807041174,"perigee_km":475.16925591152,"apogee_km":493.45768641717,"semimajor_km":6862.4504711643,"source":"CELESTRAK","updated_at":"2026-09-21T09:00:08.032008Z"}}}